Regional Weather Roundup
Issued by NWS

Home | Current Version | Previous Version | Text Only | Print | Product List | Glossary Off
Versions: 1 2 3 4 5 6 7 8 9 10 11 12 13 14 15 16 17 18 19 20 21 22 23 24 25 26 27

000
ASUS45 KCYS 261610
RWRWY

WYOMING REGIONAL WEATHER ROUNDUP
NATIONAL WEATHER SERVICE CHEYENNE WY
900 AM MST SUN FEB 26 2017

NOTE:  "FAIR" INDICATES FEW OR NO CLOUDS BELOW 12,000 FEET
WITH NO SIGNIFICANT WEATHER AND/OR OBSTRUCTIONS TO VISIBILITY.

WYZ001-261700-
YELLOWSTONE NATIONAL PARK

CITY           SKY/WX    TMP DP  RH WIND       PRES   REMARKS
LK YELLOWSTONE   N/A      7   3  84 CALM      29.71F
W YELLOWSTONE  NOT AVBL

$$
WYZ002>013-054>058-071-098>099-261700-
NORTHERN WYOMING

CITY           SKY/WX    TMP DP  RH WIND       PRES   REMARKS
JACKSON        FLURRIES  12  12 100 SW7       29.79S WCI   2
CODY           FAIR      26   2  35 SW15G25   29.74R WCI  14
GREYBULL       FAIR      23  14  68 SE5       29.78S WCI  17
WORLAND        FAIR      19  12  74 SW3       29.79R
SHERIDAN       FAIR      26  12  55 SE9       29.74R WCI  17
BUFFALO        FAIR      21   5  50 W6        29.72R WCI  13
GILLETTE       FAIR      23   8  52 SW14      29.74R WCI  11
HULETT         FAIR      27  10  50 SW9       29.75R WCI  17
NEWCASTLE      FAIR      12   7  79 CALM      29.80S

$$
WYZ014>020-022>026-101>103-261700-
CENTRAL WYOMING

CITY           SKY/WX    TMP DP  RH WIND       PRES   REMARKS
BIG PINEY      FAIR      -9  -9 100 CALM      29.81S
PINEDALE       FAIR      -4  -8  84 MISG      29.81S
DUBOIS         FAIR      10   0  61 NW17      29.70R WCI  -7
LANDER         FAIR      11  -4  51 W5        29.75R WCI   3
RIVERTON       FAIR      14   0  53 W12       29.74R WCI   0
CASPER         FAIR      15   4  61 SW21G29   29.77R WCI  -2
DOUGLAS        FAIR      11   0  61 CALM      29.79R

$$
WYZ021-027>030-104>119-261700-
SOUTHERN WYOMING

CITY           SKY/WX    TMP DP  RH WIND       PRES   REMARKS
EVANSTON       FAIR       6   1  80 SW13      29.82R WCI -10
KEMMERER         N/A    N/A N/A N/A W7        29.80S
FORT BRIDGER   FAIR      10   1  67 W10       29.85R WCI  -3
ROCK SPRINGS   FAIR      10   2  69 SW14      29.84R WCI  -6
DIXON            N/A      5  -1  75 CALM      29.92R
RAWLINS        FAIR      14   3  61 SW23G29   29.81R WCI  -5
SARATOGA       FAIR      14   3  62 S12       29.84R WCI   0
LARAMIE        FAIR      14   1  56 SW17      29.73R WCI  -3
CHEYENNE       FAIR      20   1  43 W16       29.78R WCI   6
TORRINGTON     FAIR      17   3  54 NW5       29.83R WCI  10
PINE BLUFFS    FAIR      23   5  46 W18G26    29.82S WCI   9

$$




USA.gov is the U.S. government's official web portal to all federal, state and local government web resources and services.